Regional Weather Roundup
Issued by NWS

Home | Current Version | Previous Version | Graphics & Text | Print | Product List | Glossary On
Versions: 1 2 3 4 5 6 7 8 9 10 11 12 13 14 15 16 17 18 19 20 21 22 23 24 25 26 27 28 29 30 31 32 33 34 35 36 37 38 39 40 41 42 43 44 45 46 47 48 49 50
000
ASUS43 KIND 051409
RWRIN

WEATHER ROUNDUP FOR INDIANA
NATIONAL WEATHER SERVICE INDIANAPOLIS IN
1000 AM EDT SAT SEP 05 2015

NOTE: "FAIR" INDICATES FEW OR NO CLOUDS BELOW 12,000 FEET WITH NO
SIGNIFICANT WEATHER AND/OR OBSTRUCTIONS TO VISIBILITY.

* - STATION DOES NOT REPORT WEATHER SUCH AS PRECIPITATION OR FOG.

+ - STATION NOT QUALITY CONTROLLED BY THE NATIONAL WEATHER SERVICE.
    USE DATA WITH CAUTION...ESPECIALLY DEWPOINT AND RELATIVE
    HUMIDITY OBSERVATIONS.

INZ001>003-010>013-019-020-051500-
NORTHWEST INDIANA

CITY           SKY/WX    TMP DP  RH WIND       PRES   REMARKS
GARY /AIRPORT/ CLOUDY    73  64  73 SE9       30.11S
KNOX *+        MOSUNNY   73  66  78 SW5       30.11F
LA PORTE +     MOSUNNY   75  72  89 SW6       30.13S
MICHIGAN CITY+ PTSUNNY   73  70  88 S6        30.11F
MONTICELLO +   CLOUDY    71  69  94 CALM      30.13F
RENSSELAER +   CLOUDY    72  64  78 S6        30.13R
VALPARAISO     PTSUNNY   72  66  81 W7        30.12F

$$

LMZ046-743>745-051500-
SOUTHERN LAKE MICHIGAN

STATION/POSITION TIME  TEMP    WIND        PRES    WAVE
                       AIR SEA DIR/SP/G            HT
                 (UTC) (F)     (DEG/KT/KT) (MB)    (FT)
BURNS HARBOR     1300   73     190/ 10/ 12 1020.0R
MICHIGAN CITY    1300   72     180/ 10/ 12   N/A
5NW MICH CITY    1400   74 73  240/ 10/ 12   N/A     1

$$

INZ004-005-014>016-021>024-051500-
NORTH CENTRAL INDIANA

CITY           SKY/WX    TMP DP  RH WIND       PRES   REMARKS
GOSHEN         PTSUNNY   73  66  78 S6        30.13S
LOGANSPORT +   PTSUNNY   73  63  68 SW10      30.15S
PERU/GRISSOM   PTSUNNY   75  67  76 SW7       30.14R
ROCHESTER +    MOSUNNY   75  68  78 SW6       30.14F
SOUTH BEND     MOSUNNY   75  66  73 SW7       30.12F
WARSAW +       PTSUNNY   73  66  78 S5        30.14S

$$

INZ006>009-017-018-025>027-051500-
NORTHEAST INDIANA

CITY           SKY/WX    TMP DP  RH WIND       PRES   REMARKS
ANGOLA *+      SUNNY     75  66  73 S3        30.14S
AUBURN +       PTSUNNY   72  64  78 CALM      30.16R
FORT WAYNE     PTSUNNY   75  68  78 CALM      30.15S
HUNTINGTON +   MOSUNNY   71  64  80 CALM      30.15S

$$

INZ028-029-035-036-043>045-051>053-051500-
WEST CENTRAL INDIANA

CITY           SKY/WX    TMP DP  RH WIND       PRES   REMARKS
CRAWFORDSVL +  CLOUDY    73  65  77 CALM      30.15R
GREENCASTLE +  MOSUNNY   77  64  65 CALM      30.15S
LAFAYETTE      TSTM      70  65  84 NW3       30.14R
TERRE HAUTE    MOSUNNY   74  67  78 CALM      30.14R

$$

INZ030>032-037>040-046>048-054>057-064-065-051500-
CENTRAL INDIANA

CITY           SKY/WX    TMP DP  RH WIND       PRES   REMARKS
ANDERSON       MOSUNNY   72  64  78 VRB5      30.18R
COLUMBUS       SUNNY     75  63  64 CALM      30.16R
FRANKFORT +    PTSUNNY   76  74  93 SW7       30.17R
GREENWOOD *+   SUNNY     73  63  68 SE3       30.17R
INDIANAPOLIS   MOSUNNY   75  66  73 S5        30.15R
-EAGLE CREEK   MOSUNNY   76  67  73 S3        30.15R
KOKOMO *+      PTSUNNY   75  54  46 SW5       30.15S
MARION +       SUNNY     71  61  68 S5        30.16S
MT COMFORT *+  SUNNY     73  68  83 SE5       30.17R
SHELBYVILLE    SUNNY     76  66  71 S5        30.15S
ZIONSVILLE +   PTSUNNY   77  66  68 SW5       30.16S

$$

INZ033-034-041-042-049-050-058-059-051500-
EAST CENTRAL INDIANA

CITY           SKY/WX    TMP DP  RH WIND       PRES   REMARKS
MUNCIE         MOSUNNY   74  65  73 S6        30.16S

$$

INZ060-061-067>069-081>083-085>088-051500-
SOUTHWEST INDIANA

CITY           SKY/WX    TMP DP  RH WIND       PRES   REMARKS
EVANSVILLE     SUNNY     79  68  69 CALM      30.12S
HUNTINGBURG *+ SUNNY     79  66  65 S3        30.13R
WASHINGTON +   SUNNY     76  64  65 CALM      30.13S

$$

INZ062-063-066-070>080-084-089>092-051500-
SOUTH CENTRAL AND SOUTHEAST INDIANA

CITY           SKY/WX    TMP DP  RH WIND       PRES   REMARKS
BLOOMINGTON    SUNNY     77  66  68 SE3       30.16R
MADISON *+     SUNNY     77  64  65 CALM      30.18R
NORTH VERNON + SUNNY     73  73 100 CALM      30.17R
SEYMOUR +      SUNNY     79  66  65 E3        30.15R

$$




USA.gov is the U.S. government's official web portal to all federal, state and local government web resources and services.